^^
TXWeather Station Historical Data
Daily Summary for February 07, 2022 Units:  English    Metric   Both
Daily Weekly Monthly Yearly Custom
  High: Low: Average:
Temperature: 64.0 °F 41.0 °F 52.7 °F
Dew Point: 39.0 °F 30.0 °F 35.5 °F
Humidity: 85% 35% 55%
Wind Speed: 17mph 0mph 6.6mph
Wind Gust: 19mph - -
Wind- - WSW
Pressure: 30.4 in 30.3 in -
Precipitation: 0.000 in    
Historical Graphs
 
 
Tabular Data for February 07, 2022
Time Temperature Dew Point Pressure Wind Wind Speed Wind Gust Humidity Rainfall Rate (Hourly) solar
00:17 43.0 °F 38.0 °F 30.3 in Calm   1 mph 81% 0.000 in 0.00 W/m2
00:22 43.0 °F 38.0 °F 30.3 in Calm     81% 0.000 in 0.00 W/m2
00:43 43.0 °F 38.0 °F 30.3 in Calm   1 mph 81% 0.000 in 0.00 W/m2
00:58 43.0 °F 38.0 °F 30.3 in Calm     82% 0.000 in 0.00 W/m2
01:08 43.0 °F 38.0 °F 30.3 in Calm     82% 0.000 in 0.00 W/m2
01:18 43.0 °F 38.0 °F 30.3 in Calm   1 mph 82% 0.000 in 0.00 W/m2
01:23 43.0 °F 38.0 °F 30.3 in Calm     83% 0.000 in 0.00 W/m2
01:28 43.0 °F 38.0 °F 30.3 in Calm   1 mph 83% 0.000 in 0.00 W/m2
01:48 43.0 °F 38.0 °F 30.3 in Calm     83% 0.000 in 0.00 W/m2
01:53 43.0 °F 38.0 °F 30.3 in ENE 1 mph 2 mph 83% 0.000 in 0.00 W/m2
02:04 43.0 °F 39.0 °F 30.3 in Calm     84% 0.000 in 0.00 W/m2
02:09 43.0 °F 38.0 °F 30.3 in ENE 2 mph 2 mph 84% 0.000 in 0.00 W/m2
02:11 43.0 °F 38.0 °F 30.3 in ENE 1 mph 2 mph 84% 0.000 in 0.00 W/m2
02:34 43.0 °F 38.0 °F 30.3 in Calm     84% 0.000 in 0.00 W/m2
02:54 43.0 °F 38.0 °F 30.3 in Calm   1 mph 84% 0.000 in 0.00 W/m2
02:59 43.0 °F 38.0 °F 30.3 in Calm   1 mph 84% 0.000 in 0.00 W/m2
03:04 43.0 °F 38.0 °F 30.3 in ENE 1 mph 1 mph 84% 0.000 in 0.00 W/m2
03:09 43.0 °F 38.0 °F 30.3 in ENE 1 mph 1 mph 84% 0.000 in 0.00 W/m2
03:10 43.0 °F 38.0 °F 30.3 in Calm     84% 0.000 in 0.00 W/m2
03:24 43.0 °F 38.0 °F 30.3 in Calm   1 mph 84% 0.000 in 0.00 W/m2
03:29 43.0 °F 38.0 °F 30.3 in ENE 1 mph 1 mph 84% 0.000 in 0.00 W/m2
03:30 43.0 °F 38.0 °F 30.3 in ENE 1 mph 1 mph 84% 0.000 in 0.00 W/m2
03:35 43.0 °F 39.0 °F 30.3 in Calm   1 mph 85% 0.000 in 0.00 W/m2
04:09 43.0 °F 39.0 °F 30.3 in North 2 mph 4 mph 85% 0.000 in 0.00 W/m2
04:24 43.0 °F 39.0 °F 30.3 in NNW 2 mph 4 mph 85% 0.000 in 0.00 W/m2
04:29 43.0 °F 39.0 °F 30.3 in NNW 2 mph 3 mph 85% 0.000 in 0.00 W/m2
04:33 43.0 °F 39.0 °F 30.3 in NNW 2 mph 2 mph 85% 0.000 in 0.00 W/m2
04:44 43.0 °F 39.0 °F 30.3 in NNW 2 mph 3 mph 85% 0.000 in 0.00 W/m2
04:47 43.0 °F 39.0 °F 30.3 in NNW 2 mph 3 mph 85% 0.000 in 0.00 W/m2
04:54 43.0 °F 39.0 °F 30.3 in NNW 2 mph 4 mph 85% 0.000 in 0.00 W/m2
04:59 43.0 °F 39.0 °F 30.3 in NNW 2 mph 3 mph 85% 0.000 in 0.00 W/m2
05:04 43.0 °F 39.0 °F 30.3 in NW 1 mph 3 mph 84% 0.000 in 0.00 W/m2
05:14 43.0 °F 39.0 °F 30.3 in North 3 mph 4 mph 84% 0.000 in 0.00 W/m2
05:19 43.0 °F 39.0 °F 30.3 in North 3 mph 6 mph 84% 0.000 in 0.00 W/m2
05:24 43.0 °F 39.0 °F 30.3 in North 2 mph 4 mph 83% 0.000 in 0.00 W/m2
05:29 43.0 °F 39.0 °F 30.3 in North 1 mph 3 mph 83% 0.000 in 0.00 W/m2
05:34 43.0 °F 38.0 °F 30.3 in North 3 mph 3 mph 82% 0.000 in 0.00 W/m2
05:39 43.0 °F 38.0 °F 30.3 in North 3 mph 3 mph 82% 0.000 in 0.00 W/m2
05:49 43.0 °F 38.0 °F 30.3 in North 1 mph 3 mph 81% 0.000 in 0.00 W/m2
05:54 43.0 °F 37.0 °F 30.3 in North 2 mph 2 mph 80% 0.000 in 0.00 W/m2
06:08 43.0 °F 37.0 °F 30.3 in NW 2 mph 3 mph 79% 0.000 in 0.00 W/m2
06:14 43.0 °F 37.0 °F 30.3 in NNW 3 mph 3 mph 79% 0.000 in 0.00 W/m2
06:15 43.0 °F 37.0 °F 30.3 in NNW 3 mph 3 mph 79% 0.000 in 0.00 W/m2
06:24 43.0 °F 37.0 °F 30.3 in North 2 mph 3 mph 79% 0.000 in 0.00 W/m2
06:37 43.0 °F 36.0 °F 30.4 in North 2 mph 3 mph 78% 0.000 in 0.00 W/m2
06:50 42.0 °F 36.0 °F 30.4 in Calm   2 mph 77% 0.000 in 0.00 W/m2
06:56 42.0 °F 35.0 °F 30.4 in Calm     77% 0.000 in 0.00 W/m2
07:09 42.0 °F 35.0 °F 30.4 in North 1 mph 2 mph 77% 0.000 in 0.00 W/m2
07:14 42.0 °F 35.0 °F 30.4 in North 2 mph 2 mph 76% 0.000 in 0.00 W/m2
07:19 42.0 °F 35.0 °F 30.4 in North 2 mph 2 mph 76% 0.000 in 0.00 W/m2
07:20 41.0 °F 34.0 °F 30.4 in Calm   2 mph 76% 0.000 in 0.00 W/m2
07:38 41.0 °F 34.0 °F 30.4 in North 1 mph 3 mph 77% 0.000 in 18.00 W/m2
07:40 41.0 °F 34.0 °F 30.4 in Calm   1 mph 76% 0.000 in 23.00 W/m2
07:45 41.0 °F 34.0 °F 30.4 in North 2 mph 2 mph 77% 0.000 in 33.00 W/m2
07:55 41.0 °F 34.0 °F 30.4 in North 3 mph 4 mph 77% 0.000 in 44.00 W/m2
08:00 41.0 °F 34.0 °F 30.4 in NNW 3 mph 3 mph 77% 0.000 in 53.00 W/m2
08:05 41.0 °F 34.0 °F 30.4 in North 1 mph 3 mph 77% 0.000 in 39.00 W/m2
08:19 42.0 °F 35.0 °F 30.4 in NNW 3 mph 4 mph 77% 0.000 in 127.00 W/m2
08:24 42.0 °F 35.0 °F 30.4 in North 4 mph 4 mph 77% 0.000 in 146.00 W/m2
08:29 42.0 °F 36.0 °F 30.4 in NNW 5 mph 6 mph 77% 0.000 in 97.00 W/m2
08:34 42.0 °F 35.0 °F 30.4 in NW 5 mph 6 mph 76% 0.000 in 137.00 W/m2
08:39 43.0 °F 36.0 °F 30.4 in NNW 4 mph 6 mph 76% 0.000 in 91.00 W/m2
08:44 43.0 °F 35.0 °F 30.4 in NNW 4 mph 6 mph 74% 0.000 in 216.00 W/m2
08:49 43.0 °F 35.0 °F 30.4 in NNW 8 mph 8 mph 74% 0.000 in 302.00 W/m2
08:54 44.0 °F 35.0 °F 30.4 in NNW 5 mph 8 mph 73% 0.000 in 306.00 W/m2
08:59 44.0 °F 35.0 °F 30.4 in NW 5 mph 6 mph 72% 0.000 in 211.00 W/m2
09:04 45.0 °F 35.0 °F 30.4 in NNW 9 mph 9 mph 70% 0.000 in 156.00 W/m2
09:09 45.0 °F 35.0 °F 30.4 in NNW 8 mph 8 mph 69% 0.000 in 323.00 W/m2
09:14 46.0 °F 35.0 °F 30.4 in North 8 mph 9 mph 67% 0.000 in 323.00 W/m2
09:19 47.0 °F 36.0 °F 30.4 in North 6 mph 7 mph 65% 0.000 in 297.00 W/m2
09:24 48.0 °F 36.0 °F 30.4 in North 5 mph 7 mph 65% 0.000 in 348.00 W/m2
09:29 49.0 °F 36.0 °F 30.4 in North 6 mph 6 mph 63% 0.000 in 439.00 W/m2
09:34 50.0 °F 36.0 °F 30.4 in North 6 mph 8 mph 62% 0.000 in 452.00 W/m2
09:39 50.0 °F 36.0 °F 30.4 in North 8 mph 8 mph 59% 0.000 in 469.00 W/m2
09:44 51.0 °F 37.0 °F 30.4 in NNE 8 mph 10 mph 59% 0.000 in 475.00 W/m2
09:49 51.0 °F 37.0 °F 30.4 in NNE 9 mph 10 mph 59% 0.000 in 499.00 W/m2
09:54 52.0 °F 37.0 °F 30.4 in North 10 mph 10 mph 58% 0.000 in 513.00 W/m2
09:59 53.0 °F 38.0 °F 30.4 in NNW 9 mph 10 mph 57% 0.000 in 527.00 W/m2
10:04 53.0 °F 37.0 °F 30.4 in North 9 mph 9 mph 56% 0.000 in 533.00 W/m2
10:09 54.0 °F 37.0 °F 30.4 in NNW 11 mph 11 mph 54% 0.000 in 555.00 W/m2
10:14 54.0 °F 37.0 °F 30.4 in North 8 mph 9 mph 52% 0.000 in 568.00 W/m2
10:19 55.0 °F 37.0 °F 30.4 in North 8 mph 9 mph 51% 0.000 in 582.00 W/m2
10:24 56.0 °F 36.0 °F 30.4 in North 10 mph 10 mph 49% 0.000 in 594.00 W/m2
10:29 56.0 °F 36.0 °F 30.4 in North 13 mph 14 mph 47% 0.000 in 606.00 W/m2
10:34 57.0 °F 35.0 °F 30.4 in NNE 12 mph 12 mph 45% 0.000 in 617.00 W/m2
10:39 57.0 °F 35.0 °F 30.4 in NNE 14 mph 14 mph 44% 0.000 in 628.00 W/m2
10:44 58.0 °F 36.0 °F 30.4 in North 11 mph 11 mph 44% 0.000 in 638.00 W/m2
10:49 58.0 °F 36.0 °F 30.4 in North 9 mph 11 mph 44% 0.000 in 647.00 W/m2
10:54 58.0 °F 36.0 °F 30.4 in North 10 mph 12 mph 43% 0.000 in 659.00 W/m2
10:59 59.0 °F 36.0 °F 30.4 in NNW 12 mph 13 mph 43% 0.000 in 668.00 W/m2
11:04 59.0 °F 35.0 °F 30.4 in North 14 mph 14 mph 42% 0.000 in 677.00 W/m2
11:09 59.0 °F 35.0 °F 30.4 in North 15 mph 15 mph 41% 0.000 in 684.00 W/m2
11:14 59.0 °F 36.0 °F 30.4 in North 10 mph 11 mph 42% 0.000 in 693.00 W/m2
11:19 59.0 °F 35.0 °F 30.4 in North 13 mph 13 mph 41% 0.000 in 698.00 W/m2
11:24 59.0 °F 36.0 °F 30.4 in North 9 mph 9 mph 42% 0.000 in 703.00 W/m2
11:29 60.0 °F 36.0 °F 30.4 in North 9 mph 11 mph 41% 0.000 in 705.00 W/m2
11:34 60.0 °F 36.0 °F 30.4 in North 11 mph 11 mph 41% 0.000 in 721.00 W/m2
11:39 61.0 °F 36.0 °F 30.4 in North 13 mph 13 mph 40% 0.000 in 726.00 W/m2
11:44 61.0 °F 36.0 °F 30.4 in North 14 mph 14 mph 40% 0.000 in 733.00 W/m2
11:49 61.0 °F 36.0 °F 30.4 in North 13 mph 14 mph 39% 0.000 in 738.00 W/m2
11:54 61.0 °F 35.0 °F 30.4 in NNW 12 mph 13 mph 39% 0.000 in 742.00 W/m2
11:59 61.0 °F 36.0 °F 30.4 in NNW 14 mph 14 mph 39% 0.000 in 747.00 W/m2
12:04 61.0 °F 36.0 °F 30.4 in NNW 12 mph 14 mph 40% 0.000 in 747.00 W/m2
12:09 61.0 °F 36.0 °F 30.4 in NNW 13 mph 14 mph 40% 0.000 in 752.00 W/m2
12:14 61.0 °F 37.0 °F 30.4 in North 13 mph 13 mph 40% 0.000 in 758.00 W/m2
12:19 61.0 °F 37.0 °F 30.4 in NW 10 mph 12 mph 40% 0.000 in 758.00 W/m2
12:24 61.0 °F 37.0 °F 30.4 in NNW 10 mph 10 mph 40% 0.000 in 758.00 W/m2
12:29 62.0 °F 37.0 °F 30.4 in NW 10 mph 11 mph 40% 0.000 in 758.00 W/m2
12:34 62.0 °F 36.0 °F 30.4 in NW 13 mph 15 mph 39% 0.000 in 761.00 W/m2
12:39 62.0 °F 37.0 °F 30.4 in NW 10 mph 12 mph 40% 0.000 in 735.00 W/m2
12:44 62.0 °F 37.0 °F 30.4 in NW 14 mph 14 mph 40% 0.000 in 759.00 W/m2
12:49 62.0 °F 37.0 °F 30.4 in NNW 13 mph 14 mph 40% 0.000 in 759.00 W/m2
12:54 62.0 °F 36.0 °F 30.4 in NNW 14 mph 15 mph 38% 0.000 in 758.00 W/m2
12:59 61.0 °F 36.0 °F 30.4 in NW 17 mph 17 mph 38% 0.000 in 756.00 W/m2
13:04 61.0 °F 36.0 °F 30.4 in NNW 13 mph 14 mph 39% 0.000 in 754.00 W/m2
13:09 61.0 °F 36.0 °F 30.4 in NW 13 mph 14 mph 39% 0.000 in 735.00 W/m2
13:14 61.0 °F 36.0 °F 30.4 in WNW 10 mph 13 mph 39% 0.000 in 747.00 W/m2
13:19 61.0 °F 36.0 °F 30.3 in NW 10 mph 10 mph 39% 0.000 in 747.00 W/m2
13:24 61.0 °F 36.0 °F 30.3 in NW 10 mph 11 mph 39% 0.000 in 742.00 W/m2
13:29 62.0 °F 37.0 °F 30.3 in NNW 13 mph 14 mph 39% 0.000 in 738.00 W/m2
13:34 62.0 °F 37.0 °F 30.3 in NW 11 mph 14 mph 39% 0.000 in 647.00 W/m2
13:39 62.0 °F 37.0 °F 30.3 in NW 14 mph 14 mph 39% 0.000 in 722.00 W/m2
13:44 62.0 °F 37.0 °F 30.3 in NW 10 mph 11 mph 39% 0.000 in 721.00 W/m2
13:49 62.0 °F 36.0 °F 30.3 in NW 8 mph 11 mph 38% 0.000 in 715.00 W/m2
13:54 62.0 °F 36.0 °F 30.3 in NW 13 mph 13 mph 38% 0.000 in 708.00 W/m2
13:59 62.0 °F 37.0 °F 30.3 in North 12 mph 12 mph 39% 0.000 in 700.00 W/m2
14:04 63.0 °F 37.0 °F 30.3 in NW 13 mph 13 mph 38% 0.000 in 693.00 W/m2
14:09 63.0 °F 37.0 °F 30.3 in NNW 14 mph 14 mph 38% 0.000 in 687.00 W/m2
14:14 63.0 °F 36.0 °F 30.3 in NNW 12 mph 15 mph 37% 0.000 in 679.00 W/m2
14:19 63.0 °F 36.0 °F 30.3 in NNW 15 mph 15 mph 37% 0.000 in 668.00 W/m2
14:24 63.0 °F 35.0 °F 30.3 in NW 12 mph 14 mph 36% 0.000 in 661.00 W/m2
14:29 63.0 °F 35.0 °F 30.3 in NNW 15 mph 17 mph 36% 0.000 in 652.00 W/m2
14:34 62.0 °F 34.0 °F 30.3 in NW 17 mph 19 mph 35% 0.000 in 640.00 W/m2
14:39 62.0 °F 35.0 °F 30.3 in NNW 11 mph 15 mph 36% 0.000 in 629.00 W/m2
14:44 63.0 °F 35.0 °F 30.3 in NNW 14 mph 14 mph 36% 0.000 in 622.00 W/m2
14:49 63.0 °F 35.0 °F 30.3 in NNW 13 mph 15 mph 36% 0.000 in 608.00 W/m2
14:54 63.0 °F 36.0 °F 30.3 in NNE 11 mph 15 mph 36% 0.000 in 596.00 W/m2
14:59 63.0 °F 36.0 °F 30.3 in NNW 14 mph 14 mph 36% 0.000 in 584.00 W/m2
15:04 64.0 °F 36.0 °F 30.3 in North 12 mph 15 mph 36% 0.000 in 571.00 W/m2
15:09 64.0 °F 36.0 °F 30.3 in NNE 16 mph 16 mph 36% 0.000 in 557.00 W/m2
15:14 64.0 °F 36.0 °F 30.3 in North 11 mph 12 mph 35% 0.000 in 547.00 W/m2
15:19 64.0 °F 36.0 °F 30.3 in North 12 mph 16 mph 35% 0.000 in 531.00 W/m2
15:24 64.0 °F 36.0 °F 30.3 in North 12 mph 16 mph 35% 0.000 in 517.00 W/m2
15:29 64.0 °F 36.0 °F 30.3 in NNW 13 mph 13 mph 35% 0.000 in 501.00 W/m2
15:34 64.0 °F 36.0 °F 30.3 in NNW 11 mph 12 mph 36% 0.000 in 489.00 W/m2
15:39 64.0 °F 36.0 °F 30.3 in NNW 9 mph 11 mph 36% 0.000 in 471.00 W/m2
15:44 64.0 °F 36.0 °F 30.3 in NNW 11 mph 11 mph 35% 0.000 in 457.00 W/m2
15:49 63.0 °F 35.0 °F 30.3 in North 14 mph 16 mph 35% 0.000 in 443.00 W/m2
15:54 63.0 °F 36.0 °F 30.3 in North 11 mph 12 mph 36% 0.000 in 425.00 W/m2
15:59 63.0 °F 36.0 °F 30.3 in North 13 mph 13 mph 36% 0.000 in 408.00 W/m2
16:04 63.0 °F 36.0 °F 30.3 in NNW 11 mph 13 mph 36% 0.000 in 392.00 W/m2
16:09 63.0 °F 36.0 °F 30.3 in NW 14 mph 14 mph 36% 0.000 in 380.00 W/m2
16:14 63.0 °F 36.0 °F 30.3 in North 16 mph 16 mph 36% 0.000 in 362.00 W/m2
16:19 63.0 °F 35.0 °F 30.3 in NNW 12 mph 13 mph 36% 0.000 in 343.00 W/m2
16:24 62.0 °F 35.0 °F 30.3 in NNW 14 mph 14 mph 36% 0.000 in 323.00 W/m2
16:29 62.0 °F 35.0 °F 30.3 in NNW 14 mph 14 mph 36% 0.000 in 309.00 W/m2
16:34 62.0 °F 35.0 °F 30.3 in NNW 12 mph 17 mph 36% 0.000 in 283.00 W/m2
16:39 62.0 °F 35.0 °F 30.3 in North 12 mph 17 mph 36% 0.000 in 190.00 W/m2
16:44 62.0 °F 35.0 °F 30.3 in NNW 17 mph 17 mph 36% 0.000 in 181.00 W/m2
16:49 62.0 °F 34.0 °F 30.3 in NNW 14 mph 17 mph 36% 0.000 in 188.00 W/m2
16:54 61.0 °F 35.0 °F 30.3 in NNW 10 mph 14 mph 37% 0.000 in 181.00 W/m2
16:59 61.0 °F 35.0 °F 30.3 in NNW 13 mph 13 mph 37% 0.000 in 113.00 W/m2
17:04 61.0 °F 35.0 °F 30.3 in NNW 13 mph 13 mph 37% 0.000 in 127.00 W/m2
17:09 61.0 °F 35.0 °F 30.3 in NW 13 mph 13 mph 38% 0.000 in 144.00 W/m2
17:14 61.0 °F 35.0 °F 30.3 in NNW 11 mph 13 mph 38% 0.000 in 118.00 W/m2
17:19 61.0 °F 35.0 °F 30.3 in NNW 11 mph 12 mph 39% 0.000 in 95.00 W/m2
17:24 60.0 °F 35.0 °F 30.3 in NNW 14 mph 14 mph 39% 0.000 in 84.00 W/m2
17:29 60.0 °F 35.0 °F 30.3 in NNW 11 mph 11 mph 39% 0.000 in 63.00 W/m2
17:34 60.0 °F 35.0 °F 30.3 in NNW 10 mph 13 mph 39% 0.000 in 42.00 W/m2
17:39 60.0 °F 35.0 °F 30.3 in NW 11 mph 11 mph 39% 0.000 in 33.00 W/m2
17:44 60.0 °F 35.0 °F 30.3 in NNW 10 mph 10 mph 40% 0.000 in 16.00 W/m2
17:49 59.0 °F 35.0 °F 30.3 in North 8 mph 8 mph 41% 0.000 in 12.00 W/m2
17:54 59.0 °F 35.0 °F 30.3 in North 10 mph 11 mph 41% 0.000 in 11.00 W/m2
17:59 59.0 °F 35.0 °F 30.3 in North 6 mph 10 mph 42% 0.000 in 7.00 W/m2
18:04 59.0 °F 35.0 °F 30.3 in NNW 9 mph 10 mph 42% 0.000 in 5.00 W/m2
18:09 58.0 °F 35.0 °F 30.3 in North 7 mph 10 mph 42% 0.000 in 0.00 W/m2
18:14 58.0 °F 35.0 °F 30.3 in North 8 mph 8 mph 43% 0.000 in 0.00 W/m2
18:19 58.0 °F 35.0 °F 30.3 in North 5 mph 8 mph 43% 0.000 in 0.00 W/m2
18:24 58.0 °F 36.0 °F 30.3 in North 7 mph 8 mph 44% 0.000 in 0.00 W/m2
18:29 57.0 °F 35.0 °F 30.3 in North 3 mph 4 mph 44% 0.000 in 0.00 W/m2
18:34 57.0 °F 35.0 °F 30.3 in North 5 mph 5 mph 44% 0.000 in 0.00 W/m2
18:39 57.0 °F 36.0 °F 30.3 in North 3 mph 3 mph 45% 0.000 in 0.00 W/m2
18:44 57.0 °F 35.0 °F 30.3 in North 3 mph 5 mph 45% 0.000 in 0.00 W/m2
18:49 56.0 °F 35.0 °F 30.3 in North 2 mph 3 mph 45% 0.000 in 0.00 W/m2
18:54 56.0 °F 35.0 °F 30.3 in North 2 mph 2 mph 46% 0.000 in 0.00 W/m2
18:59 56.0 °F 35.0 °F 30.4 in North 3 mph 3 mph 46% 0.000 in 0.00 W/m2
19:04 56.0 °F 36.0 °F 30.4 in North 3 mph 3 mph 47% 0.000 in 0.00 W/m2
19:09 55.0 °F 35.0 °F 30.4 in North 3 mph 3 mph 47% 0.000 in 0.00 W/m2
19:14 55.0 °F 36.0 °F 30.4 in North 2 mph 3 mph 48% 0.000 in 0.00 W/m2
19:19 55.0 °F 36.0 °F 30.4 in NW 3 mph 3 mph 48% 0.000 in 0.00 W/m2
19:24 55.0 °F 36.0 °F 30.4 in NW 2 mph 2 mph 49% 0.000 in 0.00 W/m2
19:29 54.0 °F 35.0 °F 30.4 in NW 1 mph 1 mph 49% 0.000 in 0.00 W/m2
19:34 54.0 °F 36.0 °F 30.4 in NW 2 mph 2 mph 50% 0.000 in 0.00 W/m2
19:39 53.0 °F 36.0 °F 30.4 in NW 2 mph 2 mph 51% 0.000 in 0.00 W/m2
19:44 53.0 °F 36.0 °F 30.4 in NW 3 mph 4 mph 52% 0.000 in 0.00 W/m2
19:49 53.0 °F 36.0 °F 30.4 in NW 3 mph 4 mph 52% 0.000 in 0.00 W/m2
19:54 53.0 °F 36.0 °F 30.4 in NW 5 mph 5 mph 53% 0.000 in 0.00 W/m2
19:59 52.0 °F 36.0 °F 30.4 in WNW 2 mph 5 mph 53% 0.000 in 0.00 W/m2
20:04 52.0 °F 36.0 °F 30.4 in NW 4 mph 4 mph 53% 0.000 in 0.00 W/m2
20:09 52.0 °F 35.0 °F 30.4 in NW 4 mph 4 mph 53% 0.000 in 0.00 W/m2
20:14 52.0 °F 35.0 °F 30.4 in NW 4 mph 4 mph 53% 0.000 in 0.00 W/m2
20:19 52.0 °F 35.0 °F 30.4 in NW 4 mph 4 mph 53% 0.000 in 0.00 W/m2
20:24 51.0 °F 35.0 °F 30.4 in NW 3 mph 6 mph 53% 0.000 in 0.00 W/m2
20:29 51.0 °F 35.0 °F 30.4 in NW 4 mph 6 mph 53% 0.000 in 0.00 W/m2
20:34 51.0 °F 35.0 °F 30.4 in NW 4 mph 5 mph 53% 0.000 in 0.00 W/m2
20:39 51.0 °F 34.0 °F 30.4 in NW 5 mph 5 mph 52% 0.000 in 0.00 W/m2
20:44 51.0 °F 34.0 °F 30.4 in NW 4 mph 4 mph 52% 0.000 in 0.00 W/m2
20:49 51.0 °F 34.0 °F 30.4 in NW 4 mph 4 mph 52% 0.000 in 0.00 W/m2
20:54 51.0 °F 34.0 °F 30.4 in NW 3 mph 4 mph 52% 0.000 in 0.00 W/m2
20:59 51.0 °F 34.0 °F 30.4 in NW 4 mph 4 mph 52% 0.000 in 0.00 W/m2
21:04 51.0 °F 34.0 °F 30.4 in NW 2 mph 4 mph 52% 0.000 in 0.00 W/m2
21:09 51.0 °F 34.0 °F 30.4 in WNW 4 mph 4 mph 52% 0.000 in 0.00 W/m2
21:14 51.0 °F 34.0 °F 30.4 in NW 3 mph 4 mph 52% 0.000 in 0.00 W/m2
21:19 50.0 °F 33.0 °F 30.4 in NW 3 mph 3 mph 52% 0.000 in 0.00 W/m2
21:24 50.0 °F 33.0 °F 30.4 in NW 5 mph 5 mph 52% 0.000 in 0.00 W/m2
21:29 50.0 °F 33.0 °F 30.4 in NW 5 mph 6 mph 52% 0.000 in 0.00 W/m2
21:34 50.0 °F 33.0 °F 30.4 in NW 5 mph 5 mph 52% 0.000 in 0.00 W/m2
21:39 50.0 °F 33.0 °F 30.4 in NW 5 mph 6 mph 52% 0.000 in 0.00 W/m2
21:44 50.0 °F 33.0 °F 30.4 in NW 6 mph 8 mph 52% 0.000 in 0.00 W/m2
21:49 50.0 °F 33.0 °F 30.4 in NW 5 mph 8 mph 52% 0.000 in 0.00 W/m2
21:54 50.0 °F 32.0 °F 30.4 in NW 6 mph 6 mph 51% 0.000 in 0.00 W/m2
21:59 50.0 °F 32.0 °F 30.4 in NW 6 mph 6 mph 51% 0.000 in 0.00 W/m2
22:04 50.0 °F 32.0 °F 30.4 in NNW 6 mph 6 mph 50% 0.000 in 0.00 W/m2
22:09 50.0 °F 32.0 °F 30.4 in NNW 4 mph 5 mph 50% 0.000 in 0.00 W/m2
22:14 50.0 °F 32.0 °F 30.4 in NNW 4 mph 4 mph 51% 0.000 in 0.00 W/m2
22:19 50.0 °F 32.0 °F 30.4 in NNW 3 mph 3 mph 51% 0.000 in 0.00 W/m2
22:24 49.0 °F 32.0 °F 30.4 in NNW 3 mph 3 mph 51% 0.000 in 0.00 W/m2
22:29 49.0 °F 32.0 °F 30.4 in NW 4 mph 4 mph 51% 0.000 in 0.00 W/m2
22:34 49.0 °F 32.0 °F 30.4 in NNW 3 mph 5 mph 51% 0.000 in 0.00 W/m2
22:39 49.0 °F 32.0 °F 30.4 in NNW 5 mph 5 mph 52% 0.000 in 0.00 W/m2
22:44 48.0 °F 32.0 °F 30.4 in NNW 4 mph 4 mph 52% 0.000 in 0.00 W/m2
22:49 48.0 °F 31.0 °F 30.4 in NNW 4 mph 5 mph 52% 0.000 in 0.00 W/m2
22:54 48.0 °F 32.0 °F 30.4 in NNW 3 mph 4 mph 53% 0.000 in 0.00 W/m2
22:59 48.0 °F 31.0 °F 30.4 in NNW 3 mph 4 mph 53% 0.000 in 0.00 W/m2
23:04 48.0 °F 31.0 °F 30.4 in NNW 4 mph 4 mph 53% 0.000 in 0.00 W/m2
23:09 48.0 °F 31.0 °F 30.4 in NNW 2 mph 4 mph 53% 0.000 in 0.00 W/m2
23:14 47.0 °F 31.0 °F 30.4 in NW 4 mph 4 mph 53% 0.000 in 0.00 W/m2
23:19 47.0 °F 31.0 °F 30.4 in NW 2 mph 3 mph 53% 0.000 in 0.00 W/m2
23:24 47.0 °F 31.0 °F 30.4 in NW 3 mph 3 mph 53% 0.000 in 0.00 W/m2
23:29 47.0 °F 31.0 °F 30.4 in NW 2 mph 3 mph 53% 0.000 in 0.00 W/m2
23:34 47.0 °F 30.0 °F 30.4 in NW 3 mph 3 mph 53% 0.000 in 0.00 W/m2
23:39 46.0 °F 30.0 °F 30.4 in NW 4 mph 4 mph 53% 0.000 in 0.00 W/m2
23:44 46.0 °F 31.0 °F 30.4 in NW 3 mph 4 mph 54% 0.000 in 0.00 W/m2
23:49 46.0 °F 30.0 °F 30.4 in NW 4 mph 4 mph 54% 0.000 in 0.00 W/m2
23:54 46.0 °F 30.0 °F 30.4 in NNW 3 mph 4 mph 54% 0.000 in 0.00 W/m2
23:59 46.0 °F 30.0 °F 30.4 in NW 3 mph 3 mph 54% 0.000 in 0.00 W/m2
Villages of Bridgestone, Spring, TX USA
Compliments of Weather Underground - 4 mb